Regional Weather Roundup
Issued by NWS Sioux Falls, SD

Home | Current Version | Previous Version | Text Only | Print | Product List | Glossary Off
Versions: 1 2 3 4 5 6 7 8 9 10 11 12 13 14 15 16 17 18 19 20 21 22 23 24 25 26 27 28 29 30 31 32 33 34 35 36 37 38 39 40 41 42 43 44 45 46 47 48 49 50

000
ASUS43 KFSD 061602
RWRFSD

WEATHER ROUNDUP FOR SE SOUTH DAKOTA/SW MINNESOTA/NW IOWA
NATIONAL WEATHER SERVICE SIOUX FALLS SD
1000 AM CST SAT FEB 06 2016

NOTE: "FAIR" INDICATES FEW OR NO CLOUDS BELOW 12,000 FEET WITH NO
SIGNIFICANT WEATHER AND OR OBSTRUCTIONS TO VISIBILITY.


SDZ038>040-050-052>070-061700-
SOUTHEAST SOUTH DAKOTA

CITY           SKY/WX    TMP DP  RH WIND       PRES   REMARKS
BROOKINGS      MOSUNNY   27  25  92 S10       30.00F WCI  17
CHAMBERLAIN    NOT AVBL
HURON          MOSUNNY   29  23  78 S12       29.99F WCI  19
MADISON        FAIR      28  28 100 SW15      30.02S WCI  17
MITCHELL       CLOUDY    30  24  78 SW12      30.04F WCI  20
SIOUX FALLS    PTSUNNY   25  22  88 SW9       30.07F WCI  15
WINNER         FAIR      33  20  58 SW12      30.02S WCI  24
YANKTON        MOSUNNY   23  19  86 S7        30.10F WCI  15
$$

MNZ071-072-080-081-089-090-097-098-061700-
SOUTHWEST MINNESOTA

CITY           SKY/WX    TMP DP  RH WIND       PRES   REMARKS
FAIRMONT       CLOUDY    25  21  86 SW13      30.10S WCI  13
JACKSON        SUNNY     28  25  86 S8        30.09S WCI  20
LUVERNE        SUNNY     21  19  93 S3        30.08F
MARSHALL       CLOUDY    30  23  75 SW14      30.01S WCI  19
MONTEVIDEO     CLOUDY    32  25  74 SW13      30.00F WCI  22
PIPESTONE        N/A     25  18  74 SW7       30.04S WCI  17
REDWOOD FALLS  CLOUDY    29  22  75 SW13      30.04S WCI  19
TRACY          CLOUDY    30  24  79 SW23      30.02F WCI  17
WINDOM         CLOUDY    25  25 100 SW7       30.07S WCI  17
WORTHINGTON    MOSUNNY   23  19  86 SW14      30.08S WCI  11
$$

IAZ001>003-012>014-020>022-031-032-NEZ013-014-SDZ071-061700-
NORTHWEST IOWA

CITY           SKY/WX    TMP DP  RH WIND       PRES   REMARKS
ESTHERVILLE    FOG       25  25 100 S16       30.11F VSB 3/4 WCI  12
SIOUX CITY     SUNNY     23  18  81 SE8       30.17S WCI  14
SPENCER        FOG       27  23  85 SW9       30.13S VSB 1/4 WCI  18
STORM LAKE     FOG       27  27 100 MISG      30.13F VSB<1/4
$$

ABBREVIATIONS USED IN REMARKS
   TC - TEMPERATURE IN CELSIUS
  WCI - WIND CHILL INDEX
   HX - HEAT INDEX
  VSB - VISIBILITY




USA.gov is the U.S. government's official web portal to all federal, state and local government web resources and services.